Location: Newark
(15.4608°S, 41.1635°W)
Time: 23:53:32
(UTC+00:00)

Transit 4A - Pass Details

Date: 07 March 2021
Orbit: 869 x 975 km, 66.8° (Epoch: 16 April)

Event Time Altitude Azimuth Distance (km) Brightness Sun altitude
Rises 11:24:43 0° 229° (SW) 3,648 10.6 37.2°
Reaches altitude 10° 11:28:12 10° 248° (WSW) 2,709 10.0 38.1°
Maximum altitude 11:32:06 17° 286° (WNW) 2,239 9.6 39.0°
Drops below altitude 10° 11:36:01 10° 325° (NW) 2,712 10.2 39.9°
Sets 11:39:33 0° 344° (NNW) 3,652 10.9 40.8°
